Torna al catalogo

THORAD AGENA D DEB

AttivoPO
NORAD 4929·DEBRIS·🇺🇸 United States

Lanciato Apr 8, 1970 da Vandenberg Space Force Base

Loading…

Prossimi Passaggi (prossime 24 ore)

TLE

AggiornatoSource: Space-Track

Epoca: Sep 13, 2026, 04:16 UTC

1 04929U 70025FV  26256.17839303  .00000239  00000-0  99194-3 0  9992
2 04929  99.6759 233.8729 0447594 246.5893 177.6542 12.65774062595668

Traccia THORAD AGENA D DEB in tempo reale con AllMySat

Download on the App Store